Location: Key Biscayne
(25.6930°N, 80.1630°W)
Time: 07:07:09
(UTC-04:00)

CZ-2D R/B - Visible Passes

Search period start: 26 May 2017 00:00
Search period end: 05 June 2017 00:00
Orbit: 523 x 542 km, 97.5° (Epoch: 25 May)

Date Brightness Start Highest point End Pass type
(mag) Time Alt. Az. Time Alt. Az. Time Alt. Az.
26 May 6.0 21:54:55 10° SW 21:57:10 15° W 21:59:25 10° WNW visible
27 May 5.6 21:44:40 10° SSW 21:47:32 20° W 21:50:25 10° NW visible
28 May 5.1 21:34:38 10° SSW 21:37:56 27° W 21:41:13 10° NW visible
29 May 4.6 21:24:45 10° SSW 21:28:18 38° W 21:31:52 10° NNW visible
30 May 3.9 21:15:00 10° S 21:18:43 53° W 21:22:26 10° NNW visible
31 May 3.3 21:05:19 10° S 21:09:07 76° WSW 21:12:55 10° NNW visible
01 Jun 3.1 20:55:45 10° SSE 20:59:32 76° ENE 21:03:20 10° N visible
02 Jun 3.4 20:46:15 10° SSE 20:49:57 53° ENE 20:53:40 10° N visible
03 Jun 3.8 20:36:51 10° SE 20:40:23 38° ENE 20:43:56 10° N visible
04 Jun 6.2 22:03:53 10° WSW 22:05:11 11° W 22:06:29 10° WNW visible
